Location: Spruce Knob
(38.6995°N, 79.5330°W)
Time: 21:28:57
(UTC-04:00)

A-11 Canister half - Pass Details

Date: 29 January 2022
Orbit: 1513 x 1686 km, 47.2° (Epoch: 24 May)

Event Time Altitude Azimuth Distance (km) Brightness Sun altitude
Rises 16:35:34 0° 250° (WSW) 4,800 13.5 9.7°
Reaches altitude 10° 16:38:44 10° 252° (WSW) 3,792 13.1 9.2°
Maximum altitude 16:48:19 71° 336° (NNW) 1,627 9.3 7.6°
Drops below altitude 10° 16:57:37 10° 60° (ENE) 3,687 10.4 6.0°
Sets 17:00:39 0° 63° (ENE) 4,662 10.8 5.5°
